Location: Marne
(34.0056°N, 117.9064°W)
Time: 18:41:58
(UTC+00:00)

Cosmos 1626 Rocket - Pass Details

Date: 18 January 2020
Orbit: 604 x 630 km, 82.5° (Epoch: 26 February)

Event Time Altitude Azimuth Distance (km) Brightness Sun altitude
Rises 01:58:32 0° 192° (SSW) 2,870 7.4 -10.7°
Reaches altitude 10° 02:00:46 10° 196° (SSW) 1,965 6.6 -11.2°
Maximum altitude 02:05:04 64° 277° (W) 678 4.0 -12.0°
Drops below altitude 10° 02:09:23 10° 360° (N) 1,963 6.0 -12.9°
Sets 02:11:37 0° 3° (N) 2,868 6.8 -13.3°
